Location: Augsburg
(48.3836°N, 10.8929°E)
Time: 17:25:16
(UTC+02:00)

ISS - Pass Details

Date: 25 May 2021
Orbit: 417 x 422 km, 51.6° (Epoch: 12 June)

Event Time Altitude Azimuth Distance (km) Brightness Sun altitude
Rises 22:11:36 0° 288° (WNW) 2,367 1.2 -9.5°
Reaches altitude 10° 22:13:44 10° 293° (WNW) 1,503 0.2 -9.8°
Maximum altitude 22:17:04 57° 13° (NNE) 502 -3.2 -10.1°
Drops below altitude 10° 22:20:23 10° 93° (E) 1,502 -1.3 -10.5°
Enters shadow 22:20:43 - 94° (E) 1,637 -1.2 -10.5°
